Location: Julian California
(33.0790°N, 116.6010°W)
Time: 04:22:41
(UTC-07:00)

Daily predictions for brighter satellites

Satellite Brightness Start Highest point End
(mag) Time Altitude Azimuth Time Altitude Azimuth Time Altitude Azimuth
CENTAUR R/B 4.2 01:50:21 28° N 01:50:21 28° N 01:53:34 10° NNE
Cosmos 2082 Rocket 4.4 01:58:30 21° NNE 01:58:30 21° NNE 02:00:18 10° NNE
SL-16 R/B 3.8 02:20:12 37° NNE 02:20:12 37° NNE 02:24:24 10° N
CZ-4C R/B 3.8 02:45:56 10° NNW 02:50:06 38° NW 02:50:06 38° NW
CZ-2D R/B 3.7 02:48:20 10° N 02:51:05 31° N 02:51:05 31° N
Lacrosse 5 3.7 02:57:43 28° NNE 02:57:43 28° NNE 03:00:12 10° NNE
Cosmos 1980 Rocket 4.0 02:50:28 10° NNW 02:52:39 24° NNW 02:52:39 24° NNW
Cosmos 2322 Rocket 4.2 02:57:07 10° N 03:01:43 25° ENE 03:06:17 10° ESE
Cosmos 2266 Rocket 4.4 03:05:43 57° NNE 03:05:43 57° NNE 03:10:33 10° N
ARIANE 5 R/B 3.6 03:10:11 10° NNE 03:13:38 43° NNE 03:13:38 43° NNE
Resurs 1-4 Rocket 3.7 03:13:02 10° N 03:15:38 27° NNW 03:15:38 27° NNW
Timation 2 Rocket 4.1 03:19:19 75° E 03:19:19 75° E 03:25:51 10° NNE
ADEOS 4.1 03:25:16 10° NNE 03:30:06 55° E 03:30:06 55° E
Cosmos 883 Rocket 4.3 03:29:47 10° N 03:35:42 82° NW 03:35:42 82° NW
Nadezhda 2 Rocket 4.3 03:55:01 68° SW 03:55:37 74° W 04:01:44 10° N
SL-16 R/B 4.3 04:05:17 16° WNW 04:05:17 16° WNW 04:07:03 10° NW
Cosmos 1244 Rocket 4.4 04:02:12 53° SSW 04:03:48 80° W 04:10:03 10° N
Tiangong 2 2.9 04:11:34 30° NNE 04:11:34 30° NNE 04:13:36 10° NE
Cosmos 1833 4.0 04:10:51 57° SW 04:12:00 81° WNW 04:17:38 10° NNE
ADEOS II 2.1 04:09:12 10° N 04:14:20 57° WNW 04:14:52 54° W
SL-16 R/B 2.0 04:08:43 10° NNW 04:14:22 70° WSW 04:18:12 21° S
Cosmos 2151 4.3 04:10:33 10° NNW 04:12:51 28° NW 04:12:51 28° NW
Iridium 4 Rocket 3.9 04:09:59 10° N 04:15:41 56° W 04:16:47 49° SW
SL-08 R/B 4.5 04:12:13 28° S 04:15:42 83° E 04:22:02 10° N
Atlas Centaur 2 2.9 04:16:24 36° S 04:17:28 39° SSE 04:22:22 10° E
PSLV R/B 4.0 04:14:07 10° NNE 04:18:13 54° E 04:19:50 33° SSE
Cosmos 2221 2.3 04:19:21 74° WSW 04:19:33 76° W 04:23:49 10° N
SL-24 R/B - RUBIN 2 3.9 04:21:00 43° S 04:22:32 72° ESE 04:27:10 10° NNE
SAR-Lupe-2 3.7 04:23:40 63° NNW 04:23:40 63° NNW 04:26:45 10° NNW
Cosmos 1455 3.3 04:27:37 18° SSE 04:30:12 43° E 04:33:54 10° NNE
SL-24 R/B 4.5 04:30:13 10° N 04:35:13 86° W 04:39:38 16° S
COSMOS 2455 3.0 04:34:34 35° WSW 04:36:52 55° WNW 04:42:46 10° NNE
Cosmos 2360 Rocket 2.5 04:31:16 10° NNW 04:36:56 70° ENE 04:42:33 10° SSE
GENESIS II 4.1 04:38:25 53° WSW 04:39:08 67° WNW 04:43:01 10° NNE
Lacrosse 5 4.2 04:37:57 10° NW 04:39:10 11° NNW 04:40:24 10° NNW
CZ-4B R/B 3.4 04:35:41 10° NNE 04:39:26 52° E 04:42:04 17° S
Cosmos 1805 Rocket 4.0 04:36:48 10° N 04:41:05 62° E 04:45:22 10° SSE
Cosmos 1763 Rocket 4.1 04:37:32 12° S 04:42:04 53° ESE 04:47:00 10° NNE
Cosmos 1386 Rocket 4.4 04:37:57 11° S 04:43:43 90° E 04:49:47 10° N
IDEFIX/ARIANE 42P 4.4 04:39:23 10° NE 04:43:52 29° E 04:48:21 10° SSE
Helios 1A Rocket 4.1 04:40:54 10° NNW 04:44:23 26° WNW 04:44:26 26° WNW
Meteor 2-13 Rocket 4.4 04:40:15 20° SSW 04:44:30 67° W 04:50:38 10° N
STPSAT 2 (USA 217) 4.5 04:42:24 31° SSW 04:44:31 82° WNW 04:49:01 10° NNE
Cosmos 2322 Rocket 2.6 04:40:36 10° NW 04:45:48 38° WSW 04:51:00 10° S
Nadezhda 1 Rocket 4.1 04:40:27 10° N 04:46:37 80° E 04:52:52 10° S
Cosmos 1500 Rocket 4.2 04:43:39 10° NNW 04:47:37 33° W 04:47:59 32° WSW
Cosmos 1570 Rocket 4.1 04:49:20 27° SW 04:52:03 55° WNW 04:57:11 10° N
Meteor 2-2 Rocket 4.3 04:46:53 10° S 04:52:35 85° E 04:58:27 10° N
Meteor 1-27 4.3 04:57:57 10° S 05:03:46 87° E 05:09:31 10° N
ARGOS Delta rocket 3.6 05:03:37 10° S 05:08:00 73° W 05:12:34 10° NNW
GPS 2-05 Rocket1 3.1 05:08:31 17° WNW 05:10:45 55° N 05:13:55 10° E
Cosmos 1892 2.9 05:08:03 10° NNW 05:11:44 47° W 05:15:22 10° SSW
CZ-4B DEB 4.4 05:08:05 10° NNE 05:13:39 74° ESE 05:19:10 10° S
USA 229 DEB 4.0 05:08:53 17° SW 05:13:54 50° NW 05:20:32 10° NNE
USA 229 4.0 05:08:57 17° SW 05:13:59 51° NW 05:20:38 10° NNE
NOSS 3-1 (A) 3.5 05:09:07 10° SSW 05:14:32 68° ESE 05:20:33 10° NE
Cosmos 2228 Rocket 4.3 05:12:59 10° SSE 05:17:08 44° E 05:21:20 10° NNE
Cosmos 1825 3.2 05:15:18 10° N 05:18:57 48° E 05:22:35 10° SSE
CZ-4B R/B 3.9 05:17:09 10° N 05:21:18 83° WNW 05:25:35 10° SSW
Cosmos 405 Rocket 3.6 05:19:58 14° SW 05:22:50 32° WNW 05:26:26 10° NNW
Meteor 2-10 Rocket 4.1 05:21:17 10° S 05:26:46 68° E 05:32:29 10° NNE
Cosmos 2219 Rocket 3.2 05:21:22 10° N 05:26:54 51° ENE 05:32:24 10° SE
Cosmos 540 Rocket 4.1 05:22:05 10° S 05:27:03 57° ESE 05:32:02 10° NNE
Meteor 2-3 Rocket 3.7 05:23:54 10° NNW 05:29:28 74° W 05:35:02 10° S
CZ-2C R/B 3.4 05:26:19 10° NNE 05:30:45 45° E 05:35:06 10° S
Cosmos 2322 3.8 05:27:32 10° NNW 05:33:01 52° WSW 05:38:27 10° S
Meteor 1-31 Rocket 3.0 05:30:48 10° N 05:34:28 49° WNW 05:38:07 10° SSW
SJ 16-02 3.9 05:33:02 10° N 05:36:47 27° ENE 05:40:30 10° SE
Cosmos 2219 3.3 05:31:41 10° SSW 05:37:15 61° WNW 05:42:50 10° NNE
Cosmos 2237 4.5 05:32:11 10° NW 05:37:34 45° WSW 05:42:55 10° S
Cosmos 1898 Rocket 3.6 05:35:38 10° NNW 05:40:40 53° WSW 05:45:41 10° S
Okean O Rocket 1.7 05:36:35 10° N 05:40:51 57° WNW 05:45:04 10° SSW
Cosmos 1666 Rocket 4.0 05:38:12 10° NNW 05:42:20 40° W 05:46:26 10° SSW
Sich 1 3.7 05:38:44 10° NNW 05:42:34 33° W 05:46:25 10° SSW
Cosmos 1328 Rocket 3.8 05:38:19 10° SSW 05:42:35 48° W 05:46:53 10° N
Meteor 1-28 Rocket 4.1 05:41:21 10° SSW 05:44:35 27° W 05:47:51 10° NW
Shenzhou-11 Module 4.3 05:42:53 10° NW 05:45:13 21° NNE 05:47:31 10° ENE
Cosmos 2084 3.2 05:42:39 10° NW 05:46:25 55° WSW 05:50:13 10° SSE
Cosmos 1933 Rocket 4.0 05:42:57 10° N 05:47:16 66° E 05:51:33 10° SSE
Tiangong 2 3.6 05:45:57 10° NW 05:47:59 16° N 05:50:01 10° NNE
COSMO-SKYMED 1 3.8 05:45:48 10° SSE 05:49:57 48° ENE 05:54:07 10° N
Centaur D-1A AC-32 4.1 05:56:29 10° W 06:13:00 43° SSW 06:17:23 10° SE
